Hovedside
METAR-TAF:

METAR-TAF

Lufthavner :

Uppsala, Sverige

breddegrad: 59-53N, lengdegrad: 017-36E, høyde over havet: 21 m

METAR: fraværende

Tid: 00:40 (22:40 UTC)

Varsel

Denne rapporten ble laget for 11 timer og 10 minutter siden, klokken 11:30 UTC
Varsel gyldig fra 24. klokken 12 UTC til 24. klokken 14 UTC
Vind 10 kt fra Nordøst
Sikt 10 km eller mer
ingen skyer under 1500 m og ingen bygeskyer

TAF: ESCM 241130Z 2412/2414 04010KT CAVOK

Værobservasjoner og værvarsel for over 4000 flyplasser (METAR- og TAF-rapporter).

Tilgjengelige stasjoner er representert av de røde og gule prikkene på kartet.

Hold musepekeren over prikken for å se navnet på stasjonen.

Klikk så for å se værobservasjoner og -varsler.

For å forandre kartet kan du klikke på den grønne knappen med svart kryss for å zoome inn, på den grønne knappen med strek for å zoome ut, eller på de grønne pilene for å se tilstøtende kart.


METAR-TAF: